星链-2071 (STARLINK-2071 )

导读 | 豆包AI

STARLINK-2071是美国SpaceX公司星链星座的成员卫星,于2021年1月20日发射升空,属于星链低轨互联网星座组网卫星。该卫星运行在约550公里的近地轨道,是星链全球卫星互联网部署的一环,旨在为全球偏远地区、海洋空域提供高速低延迟的宽带互联网服务,配备氪离子推进与自主避碰系统,助力构建覆盖全球的低轨通信网络。

Basic Information
目录编号:
47361
目录名称:
STARLINK-2071
国际标识:
2021-005N
轨道中心:
EARTH
卫星名称:
星链-2071
卫星全名:
星链-2071 (STARLINK-2071 )
卫星状态:
在轨 (已飞行1926 天)
发射日期:
2021-01-20 UTC
国别 :
美国 (US)
星等 :
--
Orbit Information
数据来源 国际轨道数据 AOE轨道数据
星历时间 2026-04-30T04:00:17+0800
16小时前
查看轨道信息
2026-04-27T08:00:00+0800
3天前
查看轨道信息
半长轴 6855.85km 6855.903km
偏心率 0.0001234 0.0001311
轨道倾角 53.158° 53.153°
近地点辐角 86.668° 90.466°
升交点赤经 159.008° 172.158°
平近点角 273.446° 140.420°
近地点 476.866km 476.867km
远地点 478.56km 478.665km
周期 94.157分钟 94.158分钟
每日圈数 15.293641 15.293463
Detailed Information
固有亮度:
5
最大亮度:
2.5
卫星平台:
Starlink V1.0
覆盖范围:
全球
运营商:
太空探索技术公司
运营商所在国:
美国
制造商(研发单位):
太空探索技术公司
制造商所在国:
美国
使用方式:
暂无
Satellite Introduction
星链(Starlink)计划是由太空探索技术公司(SpaceX)提出的一个巨型低轨卫星互联网星座项目,计划在2019年至2024年间在太空搭建由约1.2万颗卫星组成的“星链”网络,其中1584颗将部署在地球上空550千米处的近地轨道,并从2020年开始工作。该卫星仍在工作。
2D Orbit Map
3D Orbit Map
Orbit Altitude Analysis Chart
Orbit Inclination Analysis Chart
Orbit Comprehensive Analysis Chart
View Comprehensive Chart